This is the latest recevied weather packets stored in our database for station/object W1GK. If no packets are shown the sender has not sent any weather packets the latest 10 day(s).
| Time | Temp. | Humidity | Pressure | Rain* | Wind** | Luminosity | Snow |
|---|---|---|---|---|---|---|---|
| 1777342200 | 18.89° C | 24% | 1012 hPa | 0 mm | - | 12 W/m² | - |
| 1777341601 | 19.44° C | 25% | 1011.8 hPa | 0 mm | - | 18 W/m² | - |
| 1777341000 | 19.44° C | 25% | 1011.7 hPa | 0 mm | - | 23 W/m² | - |
| 1777340399 | 20° C | 24% | 1011.6 hPa | 0 mm | - | 26 W/m² | - |
| 1777339799 | 20.56° C | 23% | 1011.5 hPa | 0 mm | - | 121 W/m² | - |
| 1777339200 | 20.56° C | 23% | 1011.6 hPa | 0 mm | - | 156 W/m² | - |
| 1777338600 | 21.11° C | 23% | 1011.5 hPa | 0 mm | - | 186 W/m² | - |
| 1777337999 | 21.11° C | 22% | 1011.3 hPa | 0 mm | - | 218 W/m² | - |
| 1777337400 | 21.11° C | 20% | 1011.3 hPa | 0 mm | - | 251 W/m² | - |
| 1777336800 | 21.67° C | 21% | 1011.1 hPa | 0 mm | - | 287 W/m² | - |
| 1777336200 | 21.67° C | 21% | 1011.2 hPa | 0 mm | - | 313 W/m² | - |
| 1777335599 | 21.67° C | 21% | 1011.2 hPa | 0 mm | - | 348 W/m² | - |
| 1777334999 | 21.67° C | 21% | 1011.1 hPa | 0 mm | - | 381 W/m² | - |
| 1777334399 | 22.78° C | 20% | 1011.1 hPa | 0 mm | - | 410 W/m² | - |
| 1777333799 | 22.22° C | 20% | 1011.1 hPa | 0 mm | - | 441 W/m² | - |
| 1777333200 | 22.22° C | 19% | 1010.9 hPa | 0 mm | - | 475 W/m² | - |
| 1777332600 | 22.78° C | 18% | 1010.9 hPa | 0 mm | - | 504 W/m² | - |
| 1777332002 | 22.78° C | 19% | 1010.9 hPa | 0 mm | - | 533 W/m² | - |
| 1777331401 | 22.78° C | 18% | 1010.7 hPa | 0 mm | - | 564 W/m² | - |
| 1777330800 | 22.78° C | 17% | 1010.8 hPa | 0 mm | - | 592 W/m² | - |
| 1777330200 | 23.33° C | 16% | 1010.8 hPa | 0 mm | - | 621 W/m² | - |
| 1777329600 | 23.33° C | 17% | 1010.9 hPa | 0 mm | - | 647 W/m² | - |
| 1777328999 | 23.33° C | 15% | 1010.8 hPa | 0 mm | - | 673 W/m² | - |
| 1777328400 | 23.33° C | 18% | 1011 hPa | 0 mm | - | 693 W/m² | - |
| 1777327800 | 22.78° C | 19% | 1011.1 hPa | 0 mm | - | 717 W/m² | - |
* Rain latest hour (hover to see other rain measurements)
** Current wind speed in m/s (hover to see current wind gust speed)